TimePDT,TemperatureF,Dew PointF,Humidity,Sea Level PressureIn,VisibilityMPH,Wind Direction,Wind SpeedMPH,Gust SpeedMPH,PrecipitationIn,Events,Conditions,WindDirDegrees,DateUTC
12:56 AM,78.1,17.1,10,29.68,10.0,South,10.4,-,N/A,,Partly Cloudy,190,2013-04-29 07:56:00
1:56 AM,77.0,17.1,10,29.68,10.0,South,11.5,-,N/A,,Partly Cloudy,190,2013-04-29 08:56:00
2:56 AM,75.9,18.0,11,29.67,10.0,SSW,11.5,-,N/A,,Partly Cloudy,200,2013-04-29 09:56:00
3:56 AM,73.9,19.0,13,29.68,10.0,SSW,11.5,-,N/A,,Partly Cloudy,200,2013-04-29 10:56:00
4:56 AM,75.0,19.9,13,29.67,10.0,SSW,13.8,-,N/A,,Partly Cloudy,200,2013-04-29 11:56:00
5:56 AM,75.0,21.0,13,29.70,10.0,SSW,3.5,-,N/A,,Clear,200,2013-04-29 12:56:00
6:56 AM,73.9,26.1,17,29.71,10.0,South,8.1,-,N/A,,Clear,180,2013-04-29 13:56:00
7:56 AM,79.0,27.0,15,29.73,10.0,South,4.6,-,N/A,,Clear,190,2013-04-29 14:56:00
8:56 AM,82.9,26.1,13,29.72,10.0,South,9.2,-,N/A,,Clear,180,2013-04-29 15:56:00
9:56 AM,87.1,24.1,10,29.72,10.0,Calm,Calm,-,N/A,,Clear,0,2013-04-29 16:56:00
10:56 AM,90.0,24.1,9,29.71,10.0,Calm,Calm,-,N/A,,Clear,0,2013-04-29 17:56:00
11:56 AM,91.9,23.0,8,29.69,10.0,Calm,Calm,-,N/A,,Clear,0,2013-04-29 18:56:00
12:56 PM,93.0,23.0,8,29.66,10.0,South,8.1,-,N/A,,Partly Cloudy,180,2013-04-29 19:56:00
1:56 PM,96.1,19.9,6,29.62,10.0,SW,5.8,-,N/A,,Partly Cloudy,230,2013-04-29 20:56:00
2:56 PM,98.1,16.0,5,29.57,10.0,SW,18.4,27.6,N/A,,Partly Cloudy,220,2013-04-29 21:56:00
3:56 PM,98.1,16.0,5,29.54,10.0,SSW,13.8,23.0,N/A,,Partly Cloudy,210,2013-04-29 22:56:00
4:56 PM,97.0,17.1,5,29.52,10.0,Variable,6.9,19.6,N/A,,Partly Cloudy,0,2013-04-29 23:56:00
5:56 PM,96.1,18.0,6,29.51,10.0,SSW,13.8,24.2,N/A,,Partly Cloudy,210,2013-04-30 00:56:00
6:56 PM,93.9,16.0,6,29.51,10.0,SW,13.8,24.2,N/A,,Partly Cloudy,220,2013-04-30 01:56:00
7:56 PM,91.9,16.0,6,29.50,10.0,SW,12.7,-,N/A,,Partly Cloudy,220,2013-04-30 02:56:00
8:56 PM,90.0,16.0,7,29.50,10.0,SW,15.0,-,N/A,,Partly Cloudy,220,2013-04-30 03:56:00
9:56 PM,86.0,15.1,7,29.51,10.0,SSW,10.4,-,N/A,,Partly Cloudy,200,2013-04-30 04:56:00
10:56 PM,87.1,15.1,7,29.50,10.0,SW,15.0,-,N/A,,Scattered Clouds,220,2013-04-30 05:56:00
11:56 PM,84.9,28.9,13,29.51,10.0,SSW,15.0,-,N/A,,Mostly Cloudy,200,2013-04-30 06:56:00